{"data":{"norad_id":66874,"epoch":"2026-09-20T11:08:56.133312Z","epoch_age_seconds":87518,"freshness":"FRESH","line1":"1 66874U 25281AC  26263.46453858  .00010291  00000+0  38289-3 0  9996","line2":"2 66874  43.0007 323.4989 0000623 269.8484  90.2296 15.27586251 45961","mean_motion":15.27586251,"eccentricity":6.23e-5,"inclination_deg":43.0007,"raan_deg":323.4989,"arg_perigee_deg":269.8484,"mean_anomaly_deg":90.2296,"bstar":0.00038289,"rev_number":4596,"period_min":94.266362966892,"perigee_km":482.60292763303,"apogee_km":483.45782908837,"semimajor_km":6861.1673783607,"source":"CELESTRAK","updated_at":"2026-09-21T09:00:36.031289Z"}}